| time (UTC) | temp C | wind direction | speed KPH | gust KPH | rain 1hr cm | rain 24hr cm | rain mn cm | humidity % | barometer mb |
| 20260504201608 | 13 | 0 | 0.0 | 0.0 | 0.00 | 0.15 | 0.15 | 94 | 1013.9 |
| 20260504201049 | 13 | 0 | 0.0 | 0.0 | 0.00 | 0.15 | 0.15 | 94 | 1013.8 |
| 20260504200545 | 13 | 0 | 0.0 | 0.0 | 0.00 | 0.15 | 0.15 | 94 | 1013.8 |
| 20260504200053 | 13 | 0 | 0.0 | 0.0 | 0.00 | 0.15 | 0.15 | 94 | 1013.8 |
| 20260504195543 | 13 | 0 | 0.0 | 0.0 | 0.00 | 0.15 | 0.15 | 94 | 1013.8 |
| 20260504195046 | 13 | 0 | 0.0 | 0.0 | 0.00 | 0.15 | 0.15 | 94 | 1013.8 |
| 20260504194554 | 13 | 0 | 0.0 | 0.0 | 0.00 | 0.15 | 0.15 | 94 | 1013.8 |
| 20260504194045 | 13 | 0 | 0.0 | 0.0 | 0.00 | 0.15 | 0.15 | 94 | 1013.8 |
| 20260504193545 | 13 | 0 | 0.0 | 0.0 | 0.00 | 0.15 | 0.15 | 94 | 1013.7 |
| 20260504193051 | 13 | 0 | 0.0 | 0.0 | 0.00 | 0.15 | 0.15 | 93 | 1013.7 |
| 20260504192542 | 13 | 0 | 0.0 | 0.0 | 0.00 | 0.15 | 0.15 | 93 | 1013.6 |
| 20260504192046 | 13 | 0 | 0.0 | 0.0 | 0.00 | 0.15 | 0.15 | 93 | 1013.5 |
| 20260504191559 | 13 | 0 | 0.0 | 0.0 | 0.00 | 0.15 | 0.15 | 93 | 1013.4 |
| 20260504191045 | 13 | 0 | 0.0 | 0.0 | 0.00 | 0.15 | 0.15 | 93 | 1013.4 |
| 20260504190545 | 14 | 0 | 0.0 | 0.0 | 0.00 | 0.15 | 0.15 | 93 | 1013.5 |
| 20260504190114 | 14 | 0 | 0.0 | 0.0 | 0.00 | 0.15 | 0.15 | 93 | 1013.4 |
| 20260504185547 | 14 | 0 | 0.0 | 0.0 | 0.00 | 0.15 | 0.15 | 93 | 1013.3 |
| 20260504185045 | 14 | 0 | 0.0 | 0.0 | 0.00 | 0.15 | 0.15 | 93 | 1013.4 |
| 20260504184615 | 14 | 0 | 0.0 | 0.0 | 0.03 | 0.15 | 0.15 | 93 | 1013.4 |
| 20260504184045 | 14 | 0 | 0.0 | 0.0 | 0.00 | 0.13 | 0.13 | 92 | 1013.4 |
| 20260504183545 | 14 | 0 | 0.0 | 0.0 | 0.00 | 0.13 | 0.13 | 92 | 1013.6 |
| 20260504183052 | 14 | 0 | 0.0 | 0.0 | 0.00 | 0.13 | 0.13 | 92 | 1013.6 |
| 20260504182544 | 14 | 0 | 0.0 | 0.0 | 0.00 | 0.13 | 0.13 | 92 | 1013.7 |
| 20260504182044 | 14 | 0 | 0.0 | 0.0 | 0.03 | 0.13 | 0.13 | 92 | 1013.7 |
| 20260504181551 | 14 | 0 | 0.0 | 0.0 | 0.03 | 0.13 | 0.13 | 92 | 1013.7 |
| 20260504181045 | 14 | 0 | 0.0 | 0.0 | 0.05 | 0.13 | 0.13 | 92 | 1013.7 |
| 20260504180544 | 14 | 0 | 0.0 | 0.0 | 0.05 | 0.13 | 0.13 | 91 | 1013.8 |
| 20260504180053 | 14 | 0 | 0.0 | 0.0 | 0.08 | 0.13 | 0.13 | 91 | 1013.8 |
| 20260504175545 | 14 | 0 | 0.0 | 0.0 | 0.08 | 0.13 | 0.13 | 91 | 1013.7 |
| 20260504175045 | 15 | 0 | 0.0 | 0.0 | 0.08 | 0.13 | 0.13 | 91 | 1013.9 |
| 20260504174554 | 15 | 0 | 0.0 | 0.0 | 0.08 | 0.10 | 0.10 | 91 | 1013.9 |
| 20260504174045 | 15 | 0 | 0.0 | 0.0 | 0.08 | 0.10 | 0.10 | 90 | 1014.0 |
| 20260504173545 | 15 | 0 | 0.0 | 0.0 | 0.08 | 0.10 | 0.10 | 90 | 1013.9 |
| 20260504173049 | 15 | 0 | 0.0 | 0.0 | 0.08 | 0.10 | 0.10 | 90 | 1014.0 |
| 20260504172544 | 15 | 0 | 0.0 | 0.0 | 0.08 | 0.10 | 0.10 | 89 | 1014.0 |
| 20260504172045 | 15 | 0 | 0.0 | 0.0 | 0.08 | 0.08 | 0.08 | 88 | 1014.0 |
| 20260504171551 | 15 | 0 | 0.0 | 4.8 | 0.08 | 0.08 | 0.08 | 88 | 1014.0 |
| 20260504171045 | 15 | 0 | 0.0 | 12.9 | 0.05 | 0.08 | 0.08 | 87 | 1014.0 |
| 20260504170544 | 15 | 0 | 1.6 | 12.9 | 0.03 | 0.05 | 0.05 | 86 | 1014.0 |
| 20260504151045 | 18 | 0 | 0.0 | 14.5 | 0.00 | 0.00 | 0.00 | 66 | 1013.4 |
| 20260504150545 | 18 | 0 | 0.0 | 8.0 | 0.00 | 0.00 | 0.00 | 66 | 1013.5 |
| 20260504141044 | 18 | 0 | 0.0 | 6.4 | 0.00 | 0.00 | 0.00 | 66 | 1013.1 |
| 20260504140546 | 19 | 0 | 0.0 | 1.6 | 0.00 | 0.00 | 0.00 | 66 | 1013.1 |
| 20260504140106 | 19 | 0 | 0.0 | 3.2 | 0.00 | 0.00 | 0.00 | 67 | 1013.2 |
| 20260504130544 | 19 | 0 | 0.0 | 11.3 | 0.00 | 0.00 | 0.00 | 67 | 1013.5 |
| 20260504120105 | 19 | 250 | 1.6 | 14.5 | 0.00 | 0.00 | 0.00 | 65 | 1013.5 |
| 20260504110547 | 20 | 0 | 0.0 | 8.0 | 0.00 | 0.00 | 0.00 | 64 | 1013.5 |
| 20260504100541 | 19 | 0 | 0.0 | 11.3 | 0.00 | 0.00 | 0.00 | 65 | 1014.1 |
| 20260504081553 | 17 | 0 | 0.0 | 9.7 | 0.00 | 0.00 | 0.00 | 70 | 1014.3 |
| 20260504081045 | 18 | 0 | 0.0 | 9.7 | 0.00 | 0.00 | 0.00 | 71 | 1014.2 |
| 20260504080541 | 17 | 0 | 0.0 | 8.0 | 0.00 | 0.00 | 0.00 | 72 | 1014.3 |
| 20260504050547 | 13 | 0 | 0.0 | 0.0 | 0.00 | 0.00 | 0.00 | 83 | 1013.4 |
| 20260504045544 | 13 | 0 | 0.0 | 0.0 | 0.00 | 0.00 | 0.00 | 84 | 1013.4 |
| 20260504045049 | 13 | 0 | 0.0 | 0.0 | 0.00 | 0.00 | 0.00 | 84 | 1013.4 |
| 20260504044552 | 13 | 0 | 0.0 | 0.0 | 0.00 | 0.00 | 0.00 | 84 | 1013.3 |
| 20260504044046 | 13 | 0 | 0.0 | 0.0 | 0.00 | 0.00 | 0.00 | 84 | 1013.2 |
| 20260504043546 | 13 | 0 | 0.0 | 0.0 | 0.00 | 0.00 | 0.00 | 84 | 1013.3 |
| 20260504043050 | 13 | 0 | 0.0 | 0.0 | 0.00 | 0.00 | 0.00 | 84 | 1013.2 |
| 20260504042545 | 13 | 0 | 0.0 | 0.0 | 0.00 | 0.00 | 0.00 | 84 | 1013.2 |
| 20260504042043 | 13 | 0 | 0.0 | 0.0 | 0.00 | 0.00 | 0.00 | 84 | 1013.2 |
| 20260504041553 | 13 | 0 | 0.0 | 0.0 | 0.00 | 0.00 | 0.00 | 84 | 1013.3 |
| 20260504041046 | 13 | 0 | 0.0 | 0.0 | 0.00 | 0.00 | 0.00 | 84 | 1013.2 |
| 20260504040548 | 13 | 0 | 0.0 | 0.0 | 0.00 | 0.00 | 0.00 | 84 | 1013.2 |
| 20260504040049 | 13 | 0 | 0.0 | 0.0 | 0.00 | 0.00 | 0.00 | 84 | 1013.2 |
| 20260504035545 | 13 | 0 | 0.0 | 0.0 | 0.00 | 0.00 | 0.00 | 84 | 1013.1 |
| 20260504035047 | 13 | 0 | 0.0 | 0.0 | 0.00 | 0.00 | 0.00 | 84 | 1013.1 |
| 20260504034553 | 13 | 0 | 0.0 | 0.0 | 0.00 | 0.00 | 0.00 | 84 | 1013.1 |
| 20260504034050 | 13 | 0 | 0.0 | 0.0 | 0.00 | 0.00 | 0.00 | 84 | 1013.0 |
| 20260504033547 | 13 | 0 | 0.0 | 0.0 | 0.00 | 0.00 | 0.00 | 84 | 1013.1 |
| 20260504033104 | 13 | 0 | 0.0 | 0.0 | 0.00 | 0.00 | 0.00 | 84 | 1013.3 |
| 20260504032547 | 13 | 0 | 0.0 | 0.0 | 0.00 | 0.00 | 0.00 | 84 | 1013.3 |
| 20260504032049 | 13 | 0 | 0.0 | 0.0 | 0.00 | 0.00 | 0.00 | 84 | 1013.4 |
| 20260504031559 | 13 | 0 | 0.0 | 0.0 | 0.00 | 0.00 | 0.00 | 84 | 1013.4 |
| 20260504031050 | 13 | 0 | 0.0 | 0.0 | 0.00 | 0.00 | 0.00 | 84 | 1013.3 |
| 20260504030545 | 13 | 0 | 0.0 | 0.0 | 0.00 | 0.00 | 0.00 | 84 | 1013.4 |
| 20260504030050 | 13 | 0 | 0.0 | 0.0 | 0.00 | 0.00 | 0.00 | 84 | 1013.4 |
| 20260504025543 | 13 | 0 | 0.0 | 0.0 | 0.00 | 0.00 | 0.00 | 83 | 1013.4 |
| 20260504025046 | 13 | 0 | 0.0 | 0.0 | 0.00 | 0.00 | 0.00 | 83 | 1013.4 |
| 20260504024601 | 13 | 0 | 0.0 | 0.0 | 0.00 | 0.00 | 0.00 | 83 | 1013.4 |
| 20260504024048 | 13 | 0 | 0.0 | 0.0 | 0.00 | 0.00 | 0.00 | 83 | 1013.4 |
| 20260504023551 | 13 | 0 | 0.0 | 0.0 | 0.00 | 0.00 | 0.00 | 83 | 1013.4 |
| 20260504023048 | 13 | 0 | 0.0 | 0.0 | 0.00 | 0.00 | 0.00 | 83 | 1013.3 |
| 20260504022547 | 13 | 0 | 0.0 | 0.0 | 0.00 | 0.00 | 0.00 | 84 | 1013.4 |
| 20260504022047 | 13 | 0 | 0.0 | 8.0 | 0.00 | 0.00 | 0.00 | 84 | 1013.3 |
| 20260504021554 | 13 | 0 | 0.0 | 8.0 | 0.00 | 0.00 | 0.00 | 84 | 1013.4 |
| 20260504021047 | 13 | 0 | 0.0 | 0.0 | 0.00 | 0.00 | 0.00 | 84 | 1013.4 |
| 20260504020547 | 13 | 0 | 0.0 | 0.0 | 0.00 | 0.00 | 0.00 | 84 | 1013.4 |
| 20260504020051 | 13 | 0 | 0.0 | 0.0 | 0.00 | 0.00 | 0.00 | 84 | 1013.3 |
| 20260504015547 | 13 | 0 | 0.0 | 0.0 | 0.00 | 0.00 | 0.00 | 84 | 1013.3 |
| 20260504015047 | 13 | 0 | 0.0 | 0.0 | 0.00 | 0.00 | 0.00 | 84 | 1013.3 |
| 20260504014550 | 13 | 0 | 0.0 | 0.0 | 0.00 | 0.00 | 0.00 | 84 | 1013.3 |
| 20260504014046 | 13 | 0 | 0.0 | 0.0 | 0.00 | 0.00 | 0.00 | 84 | 1013.3 |
| 20260504013545 | 13 | 0 | 0.0 | 0.0 | 0.00 | 0.00 | 0.00 | 84 | 1013.4 |
| 20260504013103 | 13 | 0 | 0.0 | 0.0 | 0.00 | 0.00 | 0.00 | 84 | 1013.3 |
| 20260504012546 | 13 | 0 | 0.0 | 0.0 | 0.00 | 0.00 | 0.00 | 84 | 1013.2 |
| 20260504012048 | 13 | 0 | 0.0 | 0.0 | 0.00 | 0.00 | 0.00 | 84 | 1013.3 |
| 20260504011548 | 13 | 0 | 0.0 | 0.0 | 0.00 | 0.00 | 0.00 | 84 | 1013.3 |
| 20260504011047 | 13 | 0 | 0.0 | 0.0 | 0.00 | 0.00 | 0.00 | 84 | 1013.3 |
| 20260504010545 | 13 | 0 | 0.0 | 0.0 | 0.00 | 0.00 | 0.00 | 84 | 1013.2 |
| 20260504010052 | 13 | 0 | 0.0 | 0.0 | 0.00 | 0.00 | 0.00 | 85 | 1013.2 |
| 20260504005547 | 13 | 0 | 0.0 | 0.0 | 0.00 | 0.00 | 0.00 | 85 | 1013.2 |
| 20260504005048 | 13 | 0 | 0.0 | 0.0 | 0.00 | 0.00 | 0.00 | 85 | 1013.2 |
| 20260504004601 | 13 | 0 | 0.0 | 0.0 | 0.00 | 0.00 | 0.00 | 86 | 1013.2 |
| 20260504004046 | 13 | 0 | 0.0 | 0.0 | 0.00 | 0.00 | 0.00 | 86 | 1013.2 |
| 20260504003544 | 13 | 0 | 0.0 | 0.0 | 0.00 | 0.00 | 0.00 | 86 | 1013.2 |
| 20260504003100 | 13 | 0 | 0.0 | 0.0 | 0.00 | 0.00 | 0.00 | 87 | 1013.2 |
| 20260504002546 | 13 | 0 | 0.0 | 0.0 | 0.00 | 0.00 | 0.00 | 87 | 1013.3 |
| 20260504002050 | 13 | 0 | 0.0 | 0.0 | 0.00 | 0.00 | 0.00 | 86 | 1013.3 |
| 20260504001556 | 12 | 0 | 0.0 | 0.0 | 0.00 | 0.00 | 0.00 | 86 | 1013.3 |
| 20260504001048 | 12 | 0 | 0.0 | 0.0 | 0.00 | 0.00 | 0.00 | 86 | 1013.2 |
| 20260504000546 | 12 | 0 | 0.0 | 0.0 | 0.00 | 0.00 | 0.00 | 85 | 1013.2 |
| 20260504000054 | 12 | 0 | 0.0 | 0.0 | 0.00 | 0.00 | 0.00 | 84 | 1013.2 |
| 20260503235545 | 13 | 0 | 0.0 | 0.0 | 0.00 | 0.00 | 0.00 | 84 | 1013.3 |
| 20260503235048 | 13 | 0 | 0.0 | 0.0 | 0.00 | 0.00 | 0.00 | 83 | 1013.1 |
| 20260503234552 | 13 | 0 | 0.0 | 0.0 | 0.00 | 0.00 | 0.00 | 83 | 1013.1 |
| 20260503234044 | 13 | 0 | 0.0 | 0.0 | 0.00 | 0.00 | 0.00 | 82 | 1013.1 |
| 20260503233544 | 13 | 0 | 0.0 | 0.0 | 0.00 | 0.00 | 0.00 | 81 | 1013.1 |
| 20260503233055 | 13 | 0 | 0.0 | 0.0 | 0.00 | 0.00 | 0.00 | 81 | 1013.1 |
| 20260503232545 | 14 | 0 | 0.0 | 0.0 | 0.00 | 0.00 | 0.00 | 81 | 1013.0 |
| 20260503232045 | 14 | 0 | 0.0 | 1.6 | 0.00 | 0.00 | 0.00 | 81 | 1013.0 |
| 20260503231553 | 14 | 0 | 0.0 | 1.6 | 0.00 | 0.00 | 0.00 | 81 | 1013.2 |
| 20260503231050 | 14 | 0 | 0.0 | 1.6 | 0.00 | 0.00 | 0.00 | 81 | 1013.4 |
| 20260503230547 | 14 | 0 | 0.0 | 0.0 | 0.00 | 0.00 | 0.00 | 81 | 1013.4 |
| 20260503230053 | 14 | 0 | 0.0 | 0.0 | 0.00 | 0.00 | 0.00 | 81 | 1013.5 |
| 20260503225543 | 14 | 0 | 0.0 | 0.0 | 0.00 | 0.00 | 0.00 | 81 | 1013.3 |
| 20260503225044 | 14 | 0 | 0.0 | 0.0 | 0.00 | 0.00 | 0.00 | 81 | 1013.2 |
| 20260503224549 | 14 | 0 | 0.0 | 0.0 | 0.00 | 0.00 | 0.00 | 81 | 1013.2 |
| 20260503224044 | 14 | 0 | 0.0 | 0.0 | 0.00 | 0.00 | 0.00 | 82 | 1013.1 |
| 20260503223545 | 14 | 0 | 0.0 | 0.0 | 0.00 | 0.00 | 0.00 | 82 | 1013.0 |
| 20260503223052 | 13 | 0 | 0.0 | 0.0 | 0.00 | 0.00 | 0.00 | 82 | 1013.0 |
| 20260503222546 | 13 | 0 | 0.0 | 0.0 | 0.00 | 0.00 | 0.00 | 82 | 1013.0 |
| 20260503222047 | 13 | 0 | 0.0 | 0.0 | 0.00 | 0.00 | 0.00 | 82 | 1013.0 |
| 20260503221554 | 14 | 0 | 0.0 | 0.0 | 0.00 | 0.00 | 0.00 | 81 | 1012.9 |
| 20260503221045 | 14 | 0 | 0.0 | 0.0 | 0.00 | 0.00 | 0.00 | 81 | 1013.0 |
| 20260503220545 | 14 | 0 | 0.0 | 0.0 | 0.00 | 0.00 | 0.00 | 80 | 1013.0 |
| 20260503215546 | 14 | 0 | 0.0 | 6.4 | 0.00 | 0.00 | 0.00 | 79 | 1013.0 |
| 20260503215047 | 15 | 0 | 0.0 | 6.4 | 0.00 | 0.00 | 0.00 | 79 | 1013.1 |
| 20260503214550 | 15 | 0 | 0.0 | 6.4 | 0.00 | 0.00 | 0.00 | 78 | 1013.1 |
| 20260503214046 | 15 | 0 | 0.0 | 9.7 | 0.00 | 0.00 | 0.00 | 77 | 1013.1 |
| 20260503213544 | 15 | 0 | 0.0 | 9.7 | 0.00 | 0.00 | 0.00 | 77 | 1013.2 |
| 20260503213052 | 15 | 212 | 0.0 | 8.0 | 0.00 | 0.00 | 0.00 | 77 | 1013.1 |
| 20260503212544 | 15 | 0 | 0.0 | 11.3 | 0.00 | 0.00 | 0.00 | 77 | 1013.1 |
| 20260503212044 | 15 | 0 | 0.0 | 11.3 | 0.00 | 0.00 | 0.00 | 77 | 1013.1 |
| 20260503211553 | 15 | 0 | 0.0 | 8.0 | 0.00 | 0.00 | 0.00 | 77 | 1013.1 |
| 20260503211047 | 15 | 0 | 0.0 | 6.4 | 0.00 | 0.00 | 0.00 | 77 | 1013.1 |
| 20260503210545 | 15 | 0 | 0.0 | 6.4 | 0.00 | 0.00 | 0.00 | 77 | 1013.1 |
| 20260503210052 | 15 | 0 | 0.0 | 6.4 | 0.00 | 0.00 | 0.00 | 77 | 1013.0 |
| 20260503205543 | 15 | 0 | 0.0 | 8.0 | 0.00 | 0.10 | 0.00 | 77 | 1013.1 |
| 20260503205044 | 15 | 0 | 0.0 | 8.0 | 0.00 | 0.10 | 0.00 | 77 | 1013.1 |
| 20260503204552 | 15 | 0 | 0.0 | 8.0 | 0.00 | 0.10 | 0.00 | 78 | 1013.0 |
| 20260503204043 | 15 | 0 | 0.0 | 6.4 | 0.00 | 0.10 | 0.00 | 78 | 1013.1 |
| 20260503203542 | 15 | 0 | 0.0 | 8.0 | 0.00 | 0.10 | 0.00 | 78 | 1013.1 |
| 20260503203050 | 15 | 0 | 0.0 | 8.0 | 0.00 | 0.10 | 0.00 | 78 | 1013.2 |
| 20260503202543 | 15 | 0 | 0.0 | 8.0 | 0.00 | 0.10 | 0.00 | 78 | 1013.3 |
| 20260503202045 | 15 | 0 | 0.0 | 0.0 | 0.00 | 0.10 | 0.00 | 78 | 1013.2 |